Погода в Твентеранде

Нидерланды     52°26′41″N   6°35′39″E
темп.,
°C
ветер,
м/с
пор.,
м/с
влажн.,
%
обл.,
%
осадки,
мм/ч
давл.,
гПа
погр.,
м
25 января, вт
вт2501:00+1ссв00922 0.0 103510
04:00+1юз119179 0.0 103413
07:00+3ююз118491 0.0 103320
10:00+4юз1176100 0.0 103423
13:00+5ююз2274100 0.0 1034246
16:00+4ююз2379100 0.0 1033126
19:00+4юз2277100 0.0 103233
22:00+5зюз2272100 0.0 103339
26 января, ср
ср2601:00+4зюз3575100 0.0 1033151
04:00+4зюз4572100 0.0 1032276
07:00+3юз3675100 0.0 1031245
10:00+4зюз4775100 0.0 1031508
13:00+6з5770100 0.0 1031864
16:00+6зюз4877100 0.0 1030721
19:00+5зюз5984100 0.0 1029357
22:00+3зюз5139543 0.0 1028348
27 января, чт
чт2701:00+3юз61596100 0.0 1026430
04:00+3юз71793100 0.0 1023520
07:00+4юз81792100 0.0 1021510
10:00+6зюз81590100 0.3 1021699
13:00+7з71392100 0.5 1021975
16:00+7зсз7138124 0.1 10211046
19:00+6зсз71480100 0.1 1023660
22:00+5зсз7148812 0.0 1024629
28 января, пт
пт2801:00+6зсз7127986 0.1 1024921
04:00+4сз613856 0.3 1026589
07:00+3сз512815 0.3 1029373
10:00+4зсз511855 0.0 1031584
13:00+8зсз68679 0.0 10321181
16:00+7зсз477696 0.0 1032527
19:00+4зюз3791100 0.0 1032200
22:00+4юз51090100 0.0 1031382
29 января, сб
сб2901:00+4юз6148489 0.0 1030475
04:00+5юз71681100 0.1 1026546
07:00+6юз81691100 0.1 1024540
10:00+8зюз81693100 0.0 1023747
13:00+10зюз9178111 0.0 1022892
16:00+10з101781100 0.0 10211080
19:00+9зсз91483100 0.0 10231123
22:00+7зсз5128095 0.1 1024687